Temp
13 13 13 14 12 11 7 11 10 15 14 13 13 13 11 10 11 9 9 8 11 10 10 10 10 10 10 10 10 10 10 10 10 10 10 10 10 9 9 9 9 9 9 9 9 9 9 9 9
13 14 13 12 13 15 11 13 12 14 13 12 13 13 12 10 10 10 8 8 10 10 11 10 10 10 10 10 10 10 10 10 10 10 9 9 9 9 9 9 10 10 10 10 10 10 9 9 9
13 13 12 14 15 13 13 12 13 13 12 13 12 12 10 10 9 8 8 10 10 11 10 10 10 10 10 10 10 10 10 9 9 9 9 9 9 10 10 10 10 10 10 10 9 9 9 9 9
13 13 13 14 16 14 12 10 13 13 13 13 13 11 11 9 9 9 9 9 11 11 10 10 10 10 10 10 10 9 9 9 9 9 9 9 10 10 10 10 9 9 9 9 9 9 9 9 9
13 12 14 16 17 16 15 15 15 14 13 14 13 10 10 11 11 10 10 10 11 11 10 10 10 10 10 10 9 9 9 9 9 9 9 9 9 10 10 10 10 9 9 9 9 9 9 9 9
12 13 15 17 17 16 16 16 15 15 14 13 12 11 10 11 11 11 10 7 9 10 10 10 10 10 9 9 9 9 9 9 9 9 9 9 9 9 10 9 9 9 9 9 9 9 8 8 8
12 14 16 17 17 16 17 16 16 15 14 14 12 12 13 11 10 8 8 7 8 10 10 10 9 9 9 9 9 9 9 9 9 9 9 9 9 9 9 9 9 9 9 9 8 8 8 8 8
12 14 15 17 18 16 16 16 16 15 14 14 13 13 13 12 10 8 8 7 7 10 10 10 9 10 9 10 9 9 9 9 9 9 9 9 9 9 9 9 9 9 8 8 8 8 8 8 8
13 14 15 17 18 16 16 16 15 15 14 14 13 13 13 12 11 8 8 8 7 8 9 9 9 9 9 9 9 9 9 9 9 9 9 9 9 9 9 9 8 8 8 8 8 8 8 9 8
13 14 15 17 18 17 17 16 15 14 14 13 12 11 13 12 10 8 8 8 8 7 7 9 9 10 10 9 9 9 9 9 9 9 9 9 9 9 8 8 8 8 8 8 9 9 9 8 8
13 14 15 17 17 17 16 16 15 14 15 13 12 11 13 11 9 9 8 8 8 8 8 8 9 9 9 9 9 9 9 9 9 8 9 8 8 8 8 8 8 8 8 8 8 8 8 8 8
14 14 15 16 16 17 17 16 16 15 15 14 9 11 12 10 9 9 8 8 7 8 8 9 9 9 8 8 8 8 9 9 9 9 8 8 8 8 7 7 7 8 8 8 8 7 7 7 7
14 15 15 15 16 16 16 16 16 16 15 12 8 10 11 10 9 9 8 8 8 7 10 9 9 8 8 8 8 8 8 9 9 9 8 8 7 7 7 7 7 8 8 7 7 7 7 7 7
15 15 15 15 16 16 15 15 15 15 15 14 12 10 10 10 10 9 8 8 8 10 10 9 9 9 9 8 8 8 8 8 9 8 8 7 7 6 7 7 8 8 8 7 7 7 7 7 7
14 15 15 15 15 16 15 15 15 15 15 14 13 11 11 10 10 9 8 8 8 10 9 10 10 10 9 8 8 9 9 8 8 8 8 7 6 6 7 8 7 7 7 7 7 6 6 6 5
14 14 15 15 15 15 15 15 15 15 15 14 13 12 12 11 10 10 8 8 8 11 10 10 9 9 9 8 7 8 9 8 8 8 7 7 6 7 7 7 7 7 7 6 6 6 5 5 5
14 15 15 16 16 16 15 15 15 16 15 15 10 9 12 11 11 10 9 8 11 11 10 9 9 9 7 6 7 8 9 8 8 7 8 7 6 7 7 7 7 6 6 6 5 5 5 5 4
16 16 16 16 17 16 16 15 15 16 16 15 14 13 13 12 11 10 10 10 11 10 10 10 9 9 8 6 6 7 8 8 7 7 7 6 7 6 7 7 6 6 6 5 5 4 4 4 4
15 16 16 17 17 16 16 15 16 16 15 14 14 14 12 12 11 10 11 11 10 10 10 10 9 9 9 8 8 8 8 7 7 7 6 6 6 6 6 6 5 6 5 4 4 4 4 4 4
14 15 15 16 16 15 15 15 15 16 15 14 14 14 13 12 11 11 11 11 11 10 10 9 9 9 9 8 8 7 7 7 8 7 6 6 6 6 6 5 5 5 5 4 3 3 3 3 3
14 14 15 15 16 15 15 15 16 16 16 14 14 14 13 12 12 12 12 12 11 11 10 9 9 9 8 8 8 7 7 7 7 6 6 6 6 6 5 5 5 4 4 3 3 3 3 3 3
14 15 15 15 15 16 16 16 16 16 16 15 14 14 13 13 13 12 13 12 11 11 10 9 9 9 9 9 8 7 7 7 6 7 6 6 6 5 5 4 4 4 3 3 3 2 2 2 2
14 14 14 14 14 15 15 16 16 16 16 16 15 15 14 13 13 12 12 12 11 11 10 9 9 9 10 8 8 7 7 6 6 5 5 6 5 5 5 4 4 3 3 3 2 2 2 2 2
13 13 13 13 14 15 15 15 16 17 17 16 16 15 15 14 13 12 12 12 11 11 10 10 10 10 10 8 8 8 7 6 6 5 5 5 5 5 4 4 3 3 3 2 2 2 1 1 1
13 13 14 15 15 16 15 16 16 16 17 16 16 15 16 15 13 11 12 12 13 12 10 10 9 10 9 8 8 8 7 6 6 5 5 5 5 6 4 3 3 3 2 1 1 1 1 1 0
14 14 14 14 15 15 15 16 16 16 16 16 16 16 15 14 14 10 9 11 13 12 11 10 9 9 9 8 8 8 7 6 5 5 4 4 4 4 3 3 3 2 2 1 1 1 1 0 -0
13 14 14 14 15 15 16 15 15 15 15 15 15 15 15 14 12 12 12 12 12 12 11 10 10 9 8 8 8 7 7 6 5 4 4 4 4 4 3 3 2 2 1 1 1 0 -0 -1 -1
12 13 13 14 13 13 15 16 13 14 14 14 14 14 13 12 11 10 9 10 11 12 11 11 10 9 8 8 8 7 6 6 5 5 4 4 4 4 3 2 2 2 1 1 -0 -0 -1 -1 -1
12 12 8 11 12 12 12 14 12 12 12 11 10 10 10 11 10 11 6 7 10 11 12 11 10 8 8 8 7 7 6 6 5 5 5 4 4 4 3 2 2 1 1 -0 -1 -1 -2 -1 -1
12 12 12 12 12 10 7 9 9 11 11 9 11 9 9 10 9 10 9 9 9 11 10 11 10 9 7 7 7 7 6 6 5 5 5 5 4 3 3 2 1 1 0 -1 -1 -2 -2 -2 -2
Height
3174 3172 3171 3170 3177 3171 3172 3162 3163 3166 3160 3160 3162 3164 3161 3160 3162 3169 3168 3169 3169 3172 3173 3173 3174 3175 3176 3178 3179 3179 3180 3181 3181 3181 3181 3182 3182 3182 3182 3182 3182 3181 3181 3181 3180 3180 3179 3178 3178
3173 3172 3170 3172 3173 3167 3169 3167 3157 3168 3159 3161 3165 3167 3162 3164 3162 3165 3169 3169 3171 3173 3173 3173 3174 3175 3177 3178 3179 3180 3181 3181 3181 3182 3182 3183 3182 3182 3182 3182 3182 3181 3181 3180 3179 3179 3178 3177 3176
3172 3172 3172 3171 3166 3164 3168 3171 3168 3167 3162 3164 3164 3164 3163 3164 3166 3166 3168 3169 3170 3171 3172 3173 3174 3176 3177 3178 3179 3180 3181 3182 3182 3183 3183 3183 3183 3183 3183 3183 3182 3181 3180 3179 3178 3177 3177 3176 3175
3171 3172 3173 3168 3161 3164 3162 3164 3167 3169 3167 3165 3163 3162 3164 3165 3165 3167 3168 3169 3170 3171 3172 3173 3174 3176 3177 3179 3180 3182 3182 3183 3183 3183 3184 3184 3184 3184 3183 3182 3182 3180 3179 3178 3177 3176 3175 3174 3173
3170 3171 3171 3167 3159 3162 3160 3154 3169 3168 3167 3167 3165 3163 3165 3164 3166 3167 3169 3170 3169 3171 3172 3174 3175 3177 3178 3180 3181 3182 3182 3183 3184 3184 3184 3184 3184 3184 3183 3182 3181 3180 3178 3177 3175 3174 3173 3172 3170
3171 3172 3170 3162 3164 3164 3160 3165 3168 3169 3166 3165 3163 3163 3165 3164 3166 3167 3169 3172 3170 3172 3173 3174 3176 3178 3179 3181 3181 3182 3183 3184 3184 3184 3184 3184 3184 3183 3183 3182 3180 3179 3178 3176 3174 3172 3170 3169 3167
3169 3170 3166 3160 3161 3162 3163 3165 3165 3166 3165 3164 3163 3161 3165 3165 3166 3169 3173 3177 3171 3173 3174 3176 3177 3178 3180 3181 3182 3183 3184 3184 3185 3184 3185 3184 3183 3182 3181 3180 3179 3177 3175 3174 3172 3170 3167 3165 3163
3169 3170 3166 3161 3159 3158 3160 3163 3163 3164 3164 3164 3165 3162 3164 3165 3168 3170 3174 3176 3173 3173 3176 3177 3178 3179 3180 3182 3183 3184 3184 3185 3185 3184 3184 3183 3183 3182 3181 3179 3177 3175 3173 3171 3168 3165 3162 3160 3158
3169 3169 3165 3160 3158 3152 3159 3163 3162 3163 3163 3166 3165 3161 3164 3165 3167 3172 3175 3176 3176 3174 3176 3177 3179 3179 3181 3182 3184 3184 3184 3184 3184 3184 3183 3182 3181 3180 3178 3177 3174 3172 3169 3166 3163 3160 3156 3154 3152
3166 3165 3163 3159 3162 3161 3157 3160 3160 3162 3162 3165 3164 3162 3163 3166 3168 3171 3174 3176 3179 3179 3177 3177 3180 3180 3181 3183 3183 3184 3184 3183 3183 3183 3182 3181 3180 3178 3175 3172 3169 3167 3164 3161 3158 3154 3152 3149 3146
3163 3162 3161 3159 3162 3161 3153 3160 3159 3162 3163 3164 3165 3163 3161 3165 3170 3173 3175 3178 3180 3178 3178 3178 3180 3180 3180 3181 3181 3182 3182 3182 3183 3182 3180 3178 3177 3174 3172 3169 3166 3164 3160 3156 3153 3149 3146 3143 3140
3161 3161 3160 3158 3158 3158 3158 3159 3160 3160 3162 3155 3156 3167 3161 3165 3171 3173 3174 3177 3178 3180 3176 3180 3181 3181 3181 3181 3182 3181 3181 3181 3180 3180 3177 3175 3173 3170 3168 3166 3162 3159 3155 3151 3148 3145 3142 3139 3135
3159 3159 3159 3158 3157 3158 3157 3158 3159 3159 3157 3149 3138 3162 3161 3166 3171 3173 3173 3174 3176 3175 3176 3179 3180 3181 3181 3181 3180 3179 3179 3178 3178 3177 3175 3172 3170 3167 3164 3162 3158 3154 3151 3147 3144 3141 3138 3134 3130
3157 3157 3156 3157 3157 3157 3157 3158 3158 3160 3154 3153 3148 3151 3157 3166 3171 3171 3171 3172 3172 3173 3176 3178 3179 3179 3179 3179 3178 3178 3177 3176 3175 3174 3172 3169 3167 3163 3160 3158 3153 3149 3146 3143 3140 3137 3135 3132 3129
3154 3154 3154 3154 3154 3155 3155 3156 3157 3159 3159 3157 3152 3156 3161 3164 3167 3168 3169 3169 3170 3171 3173 3174 3175 3176 3176 3175 3174 3175 3174 3172 3172 3170 3169 3167 3163 3159 3156 3153 3149 3146 3143 3141 3139 3136 3133 3130 3127
3152 3152 3151 3149 3151 3153 3154 3152 3153 3154 3155 3158 3157 3150 3163 3162 3162 3166 3167 3167 3167 3167 3171 3173 3174 3174 3173 3172 3172 3171 3170 3168 3169 3167 3166 3162 3159 3155 3153 3149 3146 3143 3141 3139 3136 3134 3130 3127 3125
3150 3148 3147 3146 3146 3148 3150 3151 3151 3150 3148 3154 3127 3142 3161 3161 3156 3163 3164 3162 3162 3167 3170 3170 3172 3171 3169 3166 3167 3167 3165 3167 3167 3165 3162 3159 3156 3152 3149 3147 3143 3141 3138 3136 3133 3131 3128 3125 3122
3142 3142 3141 3142 3141 3143 3147 3148 3149 3147 3143 3149 3156 3156 3154 3149 3155 3157 3157 3158 3161 3164 3166 3168 3168 3167 3165 3163 3163 3164 3165 3165 3164 3161 3158 3155 3152 3150 3146 3144 3141 3139 3136 3133 3131 3128 3126 3123 3121
3142 3140 3139 3139 3139 3140 3143 3145 3145 3146 3144 3144 3147 3149 3143 3150 3154 3151 3153 3157 3158 3160 3163 3164 3165 3165 3164 3162 3161 3162 3162 3162 3161 3158 3155 3153 3150 3147 3143 3141 3138 3136 3134 3131 3129 3126 3124 3122 3119
3143 3143 3142 3139 3139 3141 3143 3143 3143 3143 3143 3144 3145 3147 3141 3137 3146 3150 3151 3154 3154 3156 3159 3161 3161 3162 3161 3161 3160 3159 3159 3158 3156 3155 3153 3149 3147 3144 3142 3139 3136 3133 3132 3129 3126 3124 3122 3119 3117
3144 3143 3141 3141 3139 3138 3142 3140 3138 3139 3140 3139 3142 3145 3146 3142 3142 3142 3145 3146 3147 3150 3153 3156 3157 3158 3158 3157 3157 3157 3155 3154 3152 3150 3150 3146 3143 3142 3139 3136 3134 3131 3128 3126 3124 3122 3120 3118 3115
3142 3140 3139 3140 3139 3137 3137 3135 3133 3134 3135 3134 3136 3138 3141 3142 3137 3135 3135 3137 3140 3144 3147 3150 3152 3152 3153 3154 3154 3153 3152 3151 3148 3146 3144 3143 3141 3139 3137 3134 3131 3128 3126 3124 3123 3121 3119 3116 3113
3141 3139 3138 3140 3139 3138 3135 3134 3127 3127 3129 3129 3130 3130 3132 3135 3135 3131 3129 3134 3137 3139 3142 3144 3148 3149 3149 3149 3150 3149 3149 3147 3145 3144 3142 3141 3139 3137 3134 3131 3128 3126 3124 3122 3121 3119 3117 3114 3112
3140 3140 3140 3139 3137 3133 3130 3130 3124 3122 3123 3123 3128 3129 3129 3128 3131 3125 3126 3127 3131 3134 3136 3138 3143 3144 3144 3145 3146 3146 3145 3144 3143 3142 3141 3140 3138 3134 3130 3128 3126 3124 3122 3121 3119 3118 3116 3113 3111
3139 3140 3136 3131 3127 3122 3124 3122 3120 3119 3120 3120 3122 3123 3124 3119 3122 3108 3121 3126 3124 3127 3132 3133 3137 3139 3140 3142 3142 3142 3142 3141 3140 3139 3138 3134 3131 3130 3128 3126 3124 3122 3121 3118 3117 3115 3114 3112 3110
3135 3136 3133 3127 3121 3124 3120 3116 3116 3115 3117 3119 3120 3122 3119 3118 3113 3110 3122 3121 3119 3123 3126 3128 3132 3135 3136 3137 3138 3139 3138 3138 3138 3137 3136 3131 3128 3126 3125 3124 3123 3120 3117 3116 3114 3113 3112 3110 3108
3134 3132 3130 3126 3122 3118 3115 3115 3116 3116 3119 3118 3119 3121 3117 3114 3110 3105 3092 3101 3112 3116 3120 3123 3127 3131 3133 3133 3134 3135 3135 3135 3136 3134 3132 3130 3126 3126 3123 3121 3119 3117 3115 3113 3112 3110 3109 3108 3105
3133 3133 3131 3126 3126 3122 3113 3113 3117 3115 3115 3117 3114 3117 3112 3110 3102 3098 3064 3104 3106 3110 3116 3119 3122 3126 3128 3130 3131 3131 3132 3132 3132 3130 3129 3128 3125 3123 3120 3118 3116 3115 3113 3111 3109 3108 3107 3105 3104
3131 3132 3135 3134 3132 3129 3126 3118 3114 3117 3123 3123 3118 3109 3109 3107 3104 3097 3083 3103 3108 3109 3110 3114 3118 3122 3125 3127 3128 3128 3129 3129 3128 3128 3128 3126 3124 3121 3118 3115 3113 3112 3111 3109 3108 3106 3105 3103 3102
3129 3131 3134 3131 3129 3128 3130 3117 3120 3117 3121 3120 3119 3114 3110 3107 3104 3097 3097 3098 3103 3105 3106 3107 3111 3117 3124 3125 3125 3125 3126 3126 3126 3127 3126 3124 3121 3118 3115 3112 3111 3109 3108 3107 3107 3106 3103 3102 3101
Wind_Speed
14 13 12 10 9 4 18 13 29 4 6 7 7 11 12 12 2 7 9 11 7 1 2 3 5 7 7 6 6 6 6 7 8 8 8 9 9 9 9 9 9 9 9 9 9 9 10 10 10
14 13 11 14 18 25 7 21 9 4 8 10 11 9 3 8 2 11 16 15 2 2 2 5 6 6 7 7 7 7 7 8 8 9 9 9 9 9 10 10 11 11 12 12 12 13 12 12 11
12 11 11 12 21 4 8 9 4 3 8 7 8 9 4 5 11 16 11 2 2 3 6 7 8 7 8 7 7 8 8 10 10 9 8 8 8 9 9 10 11 12 13 15 15 15 15 15 14
10 7 12 16 19 6 6 14 13 4 6 9 2 7 7 5 4 9 8 3 2 7 8 9 9 9 9 9 10 10 10 9 8 8 8 8 8 9 10 11 12 14 15 16 16 17 17 17 17
9 9 15 22 25 4 6 13 14 4 10 10 4 11 11 1 7 7 5 5 2 9 9 9 10 10 11 12 11 9 8 8 7 7 7 8 9 10 11 13 14 15 17 18 19 19 19 19 19
11 11 17 22 11 6 9 5 6 8 7 7 8 11 10 3 8 9 10 15 3 7 9 10 11 12 11 10 8 7 6 6 6 6 7 8 9 11 13 14 15 17 18 19 20 21 22 21 21
14 14 22 22 5 11 12 5 3 5 5 11 6 1 4 7 10 14 17 16 9 10 10 12 13 11 10 9 7 5 4 3 4 6 7 10 12 13 15 17 19 20 21 22 24 25 25 25 25
15 14 20 21 19 2 8 5 8 6 11 8 7 10 3 8 14 17 16 18 9 7 9 10 10 9 8 7 5 3 1 3 6 9 11 14 15 16 16 20 21 23 24 25 26 29 29 27 27
14 18 20 20 17 8 5 9 8 10 4 6 10 8 2 8 14 19 18 15 12 2 4 13 10 9 9 6 3 1 3 6 9 12 15 17 19 21 23 23 24 24 26 28 30 29 27 26 25
18 20 20 19 11 4 5 7 11 9 9 10 12 15 7 10 16 20 18 16 14 10 8 5 8 8 7 5 2 4 6 9 12 15 17 20 20 23 24 27 29 29 30 31 29 27 25 23 23
19 24 19 19 15 14 6 3 11 11 11 15 16 15 11 14 19 18 18 16 18 16 16 17 8 6 4 4 8 10 11 14 13 17 21 23 24 25 26 28 30 29 30 29 27 26 24 25 24
21 22 22 22 15 11 15 7 9 10 15 25 31 15 14 17 20 20 21 21 22 20 23 13 7 4 5 6 10 12 13 16 20 21 24 26 27 27 28 28 29 29 29 26 25 24 24 24 23
19 20 21 20 21 11 14 14 12 11 16 16 32 21 13 19 19 18 17 22 18 25 14 7 8 7 8 9 10 13 16 20 22 24 26 28 28 28 28 27 28 28 26 25 24 24 24 24 25
17 19 21 22 18 19 16 15 12 12 12 8 7 25 15 19 19 19 20 19 20 18 11 10 12 13 12 13 12 13 18 22 24 25 28 28 26 26 27 27 28 27 26 25 24 24 24 23 23
17 19 16 23 19 18 15 17 17 15 16 14 16 14 16 20 18 20 18 20 17 15 14 15 16 17 18 16 19 18 22 24 28 29 27 26 25 25 27 28 26 25 25 24 23 23 21 21 19
14 16 20 18 21 19 17 21 18 18 19 20 25 17 17 16 18 21 19 20 20 20 14 13 16 19 24 27 31 22 24 25 32 31 28 27 25 27 27 27 25 25 24 23 22 20 20 18 16
13 17 20 16 22 19 18 21 19 20 26 23 41 24 18 16 18 24 25 29 25 15 14 17 15 19 24 24 23 21 22 28 33 30 28 26 24 27 27 24 24 23 23 20 19 18 17 17 17
13 19 13 19 18 20 17 20 16 19 27 21 15 15 17 19 21 26 33 30 20 19 19 16 14 15 17 18 26 26 29 30 33 29 27 25 25 25 26 23 23 21 20 19 18 16 16 16 15
14 15 13 9 13 5 12 15 21 17 15 13 14 19 12 18 21 30 36 27 23 25 20 15 12 12 11 11 12 16 22 30 28 25 24 23 25 23 24 22 22 20 18 17 16 16 16 14 14
11 15 15 15 7 5 15 17 16 18 20 21 21 22 29 25 33 40 34 28 27 26 26 16 10 12 13 15 17 21 27 27 27 23 21 23 23 23 21 20 20 20 16 15 14 14 15 16 13
13 15 16 16 14 12 13 19 20 18 20 19 19 23 24 30 34 36 36 33 31 27 26 17 10 12 17 17 19 23 26 26 24 21 19 21 22 21 19 19 18 17 16 15 14 14 14 14 14
13 12 15 16 16 17 14 17 20 18 20 23 20 23 27 29 34 36 39 32 30 25 25 21 14 12 14 19 20 21 23 23 22 21 21 20 22 20 18 17 17 16 16 15 14 14 14 14 12
13 8 7 10 14 19 21 19 22 14 24 29 29 28 28 28 33 37 43 32 27 25 26 27 17 11 17 21 20 21 22 21 21 18 20 20 19 19 18 16 16 16 15 13 14 13 13 12 12
11 9 10 15 17 17 23 23 26 25 19 18 19 19 25 29 30 38 43 33 27 27 29 30 14 5 17 21 19 20 20 18 17 17 19 18 16 16 16 16 15 16 14 13 12 12 12 11 10
10 11 15 15 15 15 14 26 23 17 12 17 19 16 21 30 35 28 38 32 28 27 28 28 26 18 18 18 17 16 15 15 15 16 19 19 19 18 15 16 17 15 15 12 12 12 9 10 10
10 17 15 15 13 9 16 12 7 13 10 13 14 12 16 16 24 42 38 38 27 21 27 28 26 23 19 15 12 9 10 12 13 14 16 18 20 21 18 17 16 14 14 13 14 13 12 11 11
14 18 14 17 23 20 22 12 24 14 8 8 13 14 20 23 22 29 40 35 22 21 20 24 27 24 18 15 9 5 7 9 9 12 15 17 19 20 18 16 15 14 14 14 14 12 11 12 13
14 16 17 14 8 13 19 10 19 11 10 5 9 14 10 13 18 24 32 17 18 18 17 21 26 21 18 16 9 5 4 7 10 12 15 16 18 21 18 17 16 15 14 13 13 13 10 11 12
12 15 16 11 10 7 11 10 15 11 14 2 13 26 24 23 30 32 13 10 24 19 16 19 24 19 21 16 9 5 4 7 11 13 16 17 18 19 18 17 17 16 13 11 10 11 12 12 13
16 13 16 14 9 3 2 29 17 10 6 25 14 14 36 27 28 27 11 13 20 18 18 19 20 18 23 17 11 7 6 7 11 14 16 18 18 18 17 17 16 16 13 10 8 9 10 10 11
Wind_Direction
298 306 298 299 272 135 123 327 331 90 64 81 82 67 70 45 238 165 164 211 265 297 266 186 147 139 132 117 101 92 81 74 66 57 54 51 50 47 42 34 24 12 0 349 338 331 323 317 313
288 296 309 287 262 269 289 307 329 41 92 89 85 76 64 66 63 130 146 196 354 220 176 147 131 123 120 115 110 101 92 82 77 74 67 56 44 34 25 15 5 357 348 340 334 329 324 321 319
275 287 284 262 262 161 304 270 73 74 90 98 83 133 86 139 120 141 162 190 256 96 129 129 129 132 127 119 114 103 99 92 81 68 58 48 37 24 13 2 354 347 341 336 332 328 325 320 317
262 307 277 266 276 126 155 147 123 129 93 91 5 62 41 110 116 142 143 164 168 129 130 130 131 130 122 118 111 107 95 85 74 60 44 31 21 10 2 355 349 343 336 330 325 320 315 310 307
243 265 258 266 273 249 90 108 145 124 100 93 100 117 103 61 124 127 136 130 171 115 124 128 124 123 121 118 111 102 89 75 57 40 28 16 5 359 356 353 351 347 342 337 330 322 315 310 304
245 257 266 268 71 53 88 98 123 114 127 111 121 100 110 121 131 132 115 107 217 120 128 128 126 124 121 119 114 103 85 62 41 23 7 356 352 350 347 344 341 338 334 330 327 322 317 311 306
237 247 256 274 279 270 284 260 150 142 115 135 136 253 32 137 132 134 123 147 238 127 135 134 133 130 131 126 116 103 83 42 9 353 343 341 338 337 337 334 330 328 325 322 320 316 310 304 300
239 256 270 274 270 311 141 209 178 157 118 145 175 267 277 162 144 137 147 140 199 141 141 143 138 140 131 129 136 137 49 345 337 335 334 333 331 324 323 323 321 319 317 317 315 313 306 300 295
235 251 260 262 281 168 144 214 198 164 161 135 192 278 141 151 150 146 147 156 151 0 146 170 156 163 151 148 154 278 330 336 336 329 328 327 326 323 320 319 316 317 316 314 316 313 309 306 301
227 241 246 261 309 190 132 214 189 187 173 172 148 184 194 164 152 156 156 156 148 148 211 251 161 186 178 144 282 284 319 328 331 328 326 319 318 314 317 319 319 321 320 319 318 316 316 312 308
228 239 248 258 302 254 41 251 262 217 209 179 164 177 161 161 155 161 161 158 152 184 206 242 232 231 293 341 321 321 325 318 317 322 321 320 318 316 317 319 318 319 319 320 321 322 323 321 316
235 242 253 266 287 271 258 280 233 256 258 258 286 215 159 161 165 168 175 176 177 174 219 229 216 257 298 320 304 307 308 314 315 317 317 316 315 315 316 318 317 320 322 324 325 328 328 327 323
240 245 248 256 267 282 263 260 257 269 263 292 167 174 173 166 171 178 171 193 187 200 237 211 230 250 265 280 298 305 312 314 313 313 314 314 315 316 316 319 321 322 327 329 331 332 332 332 330
248 252 249 248 258 258 259 251 251 250 265 280 230 157 166 175 179 188 178 195 205 231 239 235 250 261 274 281 289 302 315 315 312 310 313 315 317 318 320 323 323 327 330 332 333 330 332 329 330
251 250 253 245 252 249 250 253 245 243 236 211 201 166 177 181 186 207 193 208 220 235 234 245 259 272 270 269 273 283 303 322 313 310 316 315 320 320 322 323 327 330 331 331 331 331 328 326 331
247 241 254 249 237 244 239 250 248 238 229 224 220 165 211 198 194 210 222 239 234 239 246 273 275 283 277 276 280 281 290 315 309 311 315 319 320 321 324 326 330 331 330 330 329 329 326 327 324
238 246 240 251 240 231 224 250 250 251 240 233 270 180 207 216 196 209 226 239 252 256 253 267 292 314 289 282 268 278 295 300 303 308 314 316 321 322 323 329 329 330 326 327 328 328 325 329 327
236 220 236 255 252 204 240 246 254 251 261 219 230 220 208 200 218 220 236 258 270 249 250 262 292 313 317 285 266 271 289 290 299 306 313 316 321 322 324 329 326 325 325 329 328 327 327 329 326
303 285 292 256 231 261 226 258 243 245 212 228 242 239 225 214 223 223 252 259 253 246 244 251 286 299 308 304 297 278 286 291 295 306 308 314 319 324 324 325 323 327 328 329 328 328 329 331 324
277 268 269 282 279 242 263 264 247 239 230 228 235 233 237 195 222 240 249 251 255 249 240 250 264 289 294 292 295 295 293 293 299 303 312 316 320 322 323 324 325 326 332 329 329 329 328 329 332
265 262 264 259 271 229 258 260 256 238 233 217 219 223 233 229 239 258 262 246 247 246 235 241 256 300 303 297 292 294 292 293 298 304 306 316 322 322 324 326 325 326 331 333 330 328 327 329 334
262 263 248 262 270 264 243 256 251 234 230 223 219 224 227 237 246 257 270 266 246 239 226 230 241 286 295 299 288 293 290 292 298 311 316 325 321 321 325 325 327 330 333 332 328 328 332 332 334
251 304 283 269 265 264 263 263 265 257 227 226 234 235 234 229 239 246 266 268 260 239 224 229 250 267 300 290 293 289 290 296 300 308 315 319 322 325 326 328 332 331 332 331 328 329 330 328 333
259 289 268 263 261 259 251 253 263 256 250 231 238 236 246 237 226 234 256 259 254 243 224 230 213 220 270 284 287 285 291 290 293 304 311 318 324 326 328 336 334 329 329 330 328 324 324 329 331
245 257 266 254 230 240 320 244 241 254 260 233 226 258 257 237 223 210 249 250 248 247 228 238 221 236 258 269 272 283 285 285 295 306 316 324 329 338 336 335 329 328 328 329 325 321 325 329 331
316 245 259 280 301 336 293 263 284 250 252 247 254 257 278 224 258 284 239 250 253 247 231 235 234 242 253 249 258 273 281 283 294 305 319 327 330 339 338 331 326 325 324 327 325 329 330 330 332
283 260 306 303 280 277 272 227 260 253 272 249 274 287 279 274 275 291 215 234 251 252 236 233 231 236 239 228 235 266 284 292 303 310 320 330 330 335 331 324 323 327 325 323 321 322 321 326 327
262 275 290 282 339 302 293 310 43 359 305 254 51 322 299 311 334 258 197 255 258 259 238 229 230 233 221 218 227 258 298 319 322 322 323 332 333 329 326 325 325 326 321 319 318 316 316 327 330
302 287 328 316 292 306 301 338 27 32 31 14 357 7 356 350 346 329 288 214 265 253 240 232 230 233 217 216 228 259 288 337 335 328 327 333 331 325 326 324 324 322 317 317 314 314 320 325 335
279 277 271 288 281 288 258 286 282 220 277 339 319 332 350 341 352 338 239 182 263 241 235 234 227 230 215 218 234 255 273 324 341 336 334 328 325 327 328 325 322 317 313 311 306 305 320 328 339